Погода в Благовещенском

Россия / Владимирская область     55°43′29″N   42°12′08″E
темп.,
°C
ветер,
м/с
пор.,
м/с
влажн.,
%
обл.,
%
осадки,
мм/ч
давл.,
гПа
погр.,
м
4 марта, чт
чт400:00−1з51096100 0.3 1005571
03:00−2зюз51291100 0.4 1003611
06:00−1юз71395100 0.4 999735
09:00+1з71498100 1.5 996852
12:00+1з71399100 0.8 996891
15:000зсз4977100 1.8 9971009
18:00−3зсз3787100 0.0 998194
21:00−5сз2392100 0.0 99971
5 марта, пт
пт500:00−8ссз2395100 0.0 100042
03:00−10сз239577 0.0 100223
06:00−12сз22957 0.0 100421
09:00−9з23933 0.0 1006143
12:00−4зюз34870 0.0 1006449
15:00−3з478248 0.4 1007826
18:00−6зсз368999 0.4 1008137
21:00−9зсз369366 0.4 1011123
6 марта, сб
сб600:00−11зсз249646 0.1 1013103
03:00−14зсз349552 0.1 101479
06:00−16сз23930 0.0 101646
09:00−14сз24910 0.0 1017213
12:00−9зсз247830 0.0 1017711
15:00−7зсз357965 0.1 1016905
18:00−11зюз238762 0.0 101525
21:00−13зюз339043 0.0 101563
7 марта, вс
вс700:00−14юз369142 0.0 1013108
03:00−13ююз4109440 0.0 1011215
06:00−11ююз6149050 0.0 1007453
09:00−8ююз8149075 0.1 1004766
12:00−5ююз91591100 0.3 9991149
15:00−4юз81493100 1.3 9951157
18:00−3з61196100 2.1 993798
21:00−8зсз41276100 2.9 996581
8 марта, пн
пн800:00−11зюз512840 0.0 997311
03:00−11юз5148234 0.0 997443
06:00−9ююз6139089 0.1 994576
09:00−7юз6109395 0.9 994845
12:00−9зсз71188100 0.3 9961005
15:00−8зсз71287100 0.6 10001009
18:00−9зсз61289100 0.1 1003621
21:00−11зсз4109298 0.2 1007371